Torna al catalogo

ASBM-1

AttivoMilitareHEO
NORAD 60422·PAYLOAD·🇳🇴 Norway

Lanciato Aug 12, 2024 da Vandenberg Space Force Base

Loading…

Prossimi Passaggi (prossime 24 ore)

TLE

AggiornatoSource: Space-Track

Epoca: Sep 7, 2026, 22:17 UTC

1 60422U 24143A   26250.92872612 -.00000040  00000-0  00000-0 0  9995
2 60422  62.9305  42.2212 5639715 269.4504  29.3738  1.50429736 12866

Traccia ASBM-1 in tempo reale con AllMySat

Download on the App Store